Location: Vysna Sitnica
(49.0952°N, 21.7906°E)
Time: 03:18:15
(UTC+02:00)

ISS - Visible Passes

Search period start: 02 October 2022 00:00
Search period end: 12 October 2022 00:00
Orbit: 416 x 420 km, 51.6° (Epoch: 01 October)

Date Brightness Start Highest point End Pass type
(mag) Time Alt. Az. Time Alt. Az. Time Alt. Az.
02 Oct -2.0 19:45:51 10° W 19:48:43 26° SW 19:50:21 18° S visible
03 Oct -2.5 18:57:50 10° WNW 19:01:01 38° SSW 19:04:10 10° SE visible
04 Oct -0.9 19:48:15 10° WSW 19:49:35 12° SW 19:50:54 10° SSW visible
05 Oct -1.1 18:59:49 10° W 19:02:12 18° SW 19:04:35 10° S visible
